Location: Newark
(25.6108°S, 54.5803°W)
Time: 21:26:51
(UTC+00:00)

Courier 1B - Pass Details

Date: 27 October 2020
Orbit: 962 x 1209 km, 28.3° (Epoch: 24 November)

Event Time Altitude Azimuth Distance (km) Brightness Sun altitude
Rises 05:46:07 0° 261° (W) 4,114 - -37.9°
Reaches altitude 10° 05:49:00 10° 259° (W) 3,155 - -37.4°
Maximum altitude 05:56:56 77° 173° (S) 1,229 - -36.1°
Exits shadow 05:57:51 69° 118° (ESE) 1,272 8.1 -35.9°
Drops below altitude 10° 06:04:39 10° 86° (E) 3,075 10.6 -34.8°
Sets 06:07:25 0° 85° (E) 4,006 11.3 -34.3°
